Regional Weather Roundup
Issued by NWS

Home | Current Version | Previous Version | Text Only | Print | Product List | Glossary On
Versions: 1 2 3 4 5 6 7 8 9 10 11 12 13 14 15 16 17 18 19 20 21 22 23 24 25 26 27
000
ASUS44 KJAN 160510
RWRMS

MISSISSIPPI HOURLY WEATHER ROUNDUP
NATIONAL WEATHER SERVICE JACKSON MS
1100 PM CST FRI DEC 15 2017

NOTE: "FAIR: INDICATES FEW OR NO CLOUDS BELOW 12,000 FEET WITH NO
SIGNIFICANT WEATHER AND/OR OBSTRUCTIONS TO VISIBILITY.

MSZ001>002-007>008-010>013-018>021-025>028-034>036-160600-
NORTHWEST MISSISSIPPI

CITY           SKY/WX    TMP DP  RH WIND       PRES   REMARKS
BATESVILLE     FAIR      27  24  90 CALM      30.25S
CLARKSDALE     PTCLDY    34  28  80 S7        30.23S WCI  28
CLEVELAND      FAIR      35  27  74 S8        30.25S WCI  28
GREENWOOD      CLOUDY    29  26  89 S3        30.27S
GREENVILLE     CLOUDY    32  25  75 S6        30.25R WCI  26
OXFORD         FAIR      30  25  80 CALM      30.25S
TUNICA           N/A    N/A N/A N/A S7        30.24R
WINONA         FAIR      27  26  99 CALM      30.27S
$$

MSZ003>006-009-014>017-022>024-029>033-037>039-160600-
NORTHEAST MISSISSIPPI

CITY           SKY/WX    TMP DP  RH WIND       PRES   REMARKS
ABERDEEN       FAIR      25  25 100 CALM      30.29S
COLUMBUS AFB   CLOUDY    25  24  96 CALM      30.28R
CORINTH        FAIR      28  25  86 CALM      30.24R
GOLDN TRIANGLE CLOUDY    26  24  92 CALM      30.29R
STARKVILLE     FAIR      27  27 100 CALM      30.29S
TUPELO         CLOUDY    29  24  82 CALM      30.25S
$$

MSZ040-058-160600-
CENTRAL MISSISSIPPI

CITY           SKY/WX    TMP DP  RH WIND       PRES   REMARKS
JACKSON INTL   CLOUDY    31  26  82 CALM      30.27R
JACKSON HAWKNS CLEAR     32  29  88 CALM      30.29R
MADISON        FAIR      28  28 100 CALM      30.28R
MERIDIAN KEY   CLOUDY    29  27  92 CALM      30.29R
MERIDIAN NAS   CLOUDY    30  26  85 CALM      30.29R
RAYMOND          N/A     28  28 100 CALM      30.29R
VICKSBURG VKS  CLEAR     30  28  93 CALM      30.30S
$$

MSZ059>079-160600-
SOUTH MISSISSIPPI

CITY           SKY/WX    TMP DP  RH WIND       PRES   REMARKS
HATTIESBURG    CLOUDY    36  34  92 CALM      30.29S
LAUREL         FAIR      29  29 100 CALM      30.29S
MCCOMB         CLOUDY    36  32  85 CALM      30.27F
NATCHEZ        CLOUDY    31  29  92 SE3       30.28F
PINE BELT      CLOUDY    31  30  96 CALM      30.29R
$$

MSZ080>082-160600-
COASTAL MISSISSIPPI

CITY           SKY/WX    TMP DP  RH WIND       PRES   REMARKS
BILOXI         CLOUDY    43  33  69 N7        30.26F
PASCAGOULA     CLOUDY    42  32  67 N9        30.27F
GULFPORT       PTCLDY    44  33  65 N6        30.26F
$$

LAZ007>009-015>016-023>026-160600-
NORTHEAST LOUISIANA

CITY           SKY/WX    TMP DP  RH WIND       PRES   REMARKS
BASTROP        FAIR      36  29  76 CALM      30.27S
TALLULAH/VBURG PTCLDY    29  26  89 CALM      30.29R
VIDALIA          N/A    N/A N/A N/A MISG      30.29S
$$




USA.gov is the U.S. government's official web portal to all federal, state and local government web resources and services.